• In United Kingdom
  • List of Countries
  • For 7 days
  • Water Temperature
  • Satellite Maps
  • Weather Map
  • Weather Widgets
  • user-avatar
    Login

    Hourly Weather Baraki Barak

    Today, 20 February, Tuesday

    Time Temperature Precipitation Wind Pressure Humidity
    00:00 +6°C° 0 mm 1 mps 596 mmHg 65%
    01:00 +6°C° 0 mm 1 mps 596 mmHg 66%
    02:00 +6°C° 0 mm 1 mps 596 mmHg 66%
    03:00 +6°C° 0 mm 1 mps 595 mmHg 67%
    04:00 +6°C° 0 mm 1 mps 595 mmHg 67%
    05:00 +5°C° 0 mm 1 mps 595 mmHg 67%
    06:00 +6°C° 0 mm 1 mps 595 mmHg 67%
    07:00 +6°C° 0 mm 1 mps 595 mmHg 67%
    08:00 +6°C° 0 mm 1 mps 595 mmHg 67%
    09:00 +7°C° 0.1 mm 1 mps 596 mmHg 65%
    10:00 +8°C° 0.1 mm 1 mps 597 mmHg 64%
    11:00 +8°C° 0.1 mm 2 mps 597 mmHg 62%
    12:00 +8°C° 0.3 mm 2 mps 597 mmHg 63%
    13:00 +8°C° 0.3 mm 2 mps 596 mmHg 65%
    14:00 +8°C° 0.3 mm 2 mps 596 mmHg 66%
    15:00 +8°C° 0.1 mm 2 mps 596 mmHg 67%
    16:00 +8°C° 0.1 mm 2 mps 595 mmHg 67%
    17:00 +8°C° 0.1 mm 2 mps 595 mmHg 68%
    18:00 +7°C° 0.2 mm 2 mps 595 mmHg 70%
    19:00 +7°C° 0.2 mm 2 mps 595 mmHg 73%
    20:00 +6°C° 0.2 mm 2 mps 595 mmHg 76%
    21:00 +5°C° 0.1 mm 2 mps 595 mmHg 77%
    22:00 +5°C° 0.1 mm 2 mps 595 mmHg 79%
    23:00 +6°C° 0.1 mm 1 mps 595 mmHg 80%

    Tomorrow, 21 February, Wednesday

    Time Temperature Precipitation Wind Pressure Humidity
    00:00 +6°C° 0.1 mm 1 mps 595 mmHg 80%
    01:00 +5°C° 0.1 mm 1 mps 594 mmHg 81%
    02:00 +5°C° 0.1 mm 1 mps 594 mmHg 82%
    03:00 +5°C° 0.2 mm 1 mps 594 mmHg 82%
    04:00 +5°C° 0.2 mm 1 mps 594 mmHg 83%
    05:00 +4°C° 0.2 mm 1 mps 594 mmHg 83%
    06:00 +4°C° 0 mm 1 mps 594 mmHg 82%
    07:00 +4°C° 0 mm 1 mps 594 mmHg 81%
    08:00 +4°C° 0 mm 1 mps 595 mmHg 80%
    09:00 +5°C° 0 mm 1 mps 595 mmHg 76%
    10:00 +6°C° 0 mm 1 mps 595 mmHg 72%
    11:00 +7°C° 0 mm 1 mps 596 mmHg 67%
    12:00 +8°C° 0 mm 1 mps 596 mmHg 63%
    13:00 +9°C° 0 mm 1 mps 595 mmHg 59%
    14:00 +9°C° 0 mm 1 mps 595 mmHg 55%
    15:00 +9°C° 0 mm 1 mps 595 mmHg 54%
    16:00 +9°C° 0 mm 1 mps 595 mmHg 52%
    17:00 +9°C° 0 mm 1 mps 595 mmHg 51%
    18:00 +8°C° 0 mm 1 mps 595 mmHg 53%
    19:00 +7°C° 0 mm 1 mps 595 mmHg 56%
    20:00 +6°C° 0 mm 1 mps 595 mmHg 58%
    21:00 +6°C° 0 mm 1 mps 595 mmHg 58%
    22:00 +5°C° 0 mm 1 mps 595 mmHg 58%
    23:00 +5°C° 0 mm 1 mps 595 mmHg 59%

    Day after tomorrow, 22 February, Thursday

    Time Temperature Precipitation Wind Pressure Humidity
    00:00 +4°C° 0 mm 1 mps 595 mmHg 58%
    01:00 +4°C° 0 mm 1 mps 595 mmHg 58%
    02:00 +4°C° 0 mm 1 mps 595 mmHg 58%
    03:00 +3°C° 0 mm 1 mps 594 mmHg 57%
    04:00 +3°C° 0 mm 1 mps 594 mmHg 56%
    05:00 +3°C° 0 mm 1 mps 594 mmHg 55%
    06:00 +3°C° 0 mm 1 mps 594 mmHg 53%
    07:00 +4°C° 0 mm 1 mps 594 mmHg 51%
    08:00 +4°C° 0 mm 1 mps 595 mmHg 49%
    09:00 +5°C° 0 mm 1 mps 595 mmHg 45%
    10:00 +7°C° 0 mm 1 mps 595 mmHg 40%
    11:00 +8°C° 0 mm 1 mps 596 mmHg 35%
    12:00 +9°C° 0 mm 1 mps 595 mmHg 34%
    13:00 +10°C° 0 mm 1 mps 595 mmHg 34%
    14:00 +10°C° 0 mm 1 mps 595 mmHg 33%
    15:00 +10°C° 0 mm 1 mps 595 mmHg 34%
    16:00 +10°C° 0 mm 1 mps 595 mmHg 34%
    17:00 +10°C° 0 mm 1 mps 595 mmHg 35%
    18:00 +9°C° 0 mm 1 mps 595 mmHg 38%
    19:00 +8°C° 0 mm 1 mps 595 mmHg 40%
    20:00 +6°C° 0 mm 0 mps 595 mmHg 43%
    21:00 +6°C° 0 mm 1 mps 595 mmHg 43%
    22:00 +6°C° 0 mm 1 mps 595 mmHg 44%
    23:00 +6°C° 0 mm 1 mps 595 mmHg 45%

    23 February, Friday

    Time Temperature Precipitation Wind Pressure Humidity
    00:00 +6°C° 0 mm 1 mps 595 mmHg 45%
    01:00 +5°C° 0 mm 1 mps 595 mmHg 45%
    02:00 +5°C° 0 mm 1 mps 595 mmHg 46%
    03:00 +5°C° 0 mm 1 mps 594 mmHg 46%
    04:00 +5°C° 0 mm 1 mps 594 mmHg 46%
    05:00 +5°C° 0 mm 1 mps 594 mmHg 47%
    06:00 +5°C° 0 mm 1 mps 595 mmHg 47%
    07:00 +5°C° 0 mm 1 mps 595 mmHg 47%
    08:00 +5°C° 0 mm 1 mps 596 mmHg 48%
    09:00 +6°C° 0 mm 1 mps 596 mmHg 45%
    10:00 +8°C° 0 mm 1 mps 596 mmHg 42%
    11:00 +9°C° 0 mm 1 mps 597 mmHg 39%
    12:00 +9°C° 0 mm 1 mps 596 mmHg 40%
    13:00 +10°C° 0 mm 1 mps 596 mmHg 42%
    14:00 +10°C° 0 mm 1 mps 596 mmHg 43%
    15:00 +10°C° 0.1 mm 1 mps 595 mmHg 45%
    16:00 +10°C° 0.1 mm 1 mps 595 mmHg 48%
    17:00 +8°C° 0.1 mm 2 mps 595 mmHg 51%
    18:00 +8°C° 0.2 mm 2 mps 595 mmHg 54%
    19:00 +7°C° 0.2 mm 2 mps 595 mmHg 57%
    20:00 +7°C° 0.2 mm 3 mps 595 mmHg 59%
    21:00 +5°C° 0.7 mm 3 mps 595 mmHg 63%
    22:00 +4°C° 0.7 mm 3 mps 595 mmHg 68%
    23:00 +4°C° 0.7 mm 3 mps 595 mmHg 72%

    24 February, Saturday

    Time Temperature Precipitation Wind Pressure Humidity
    00:00 +3°C° 1.3 mm 3 mps 595 mmHg 76%
    01:00 +3°C° 1.3 mm 3 mps 594 mmHg 81%
    02:00 +2°C° 1.3 mm 3 mps 594 mmHg 85%
    03:00 +2°C° 1 mm 3 mps 594 mmHg 87%
    04:00 +1°C° 1 mm 3 mps 593 mmHg 89%
    05:00 +1°C° 1 mm 3 mps 593 mmHg 90%
    06:00 +1°C° 0.2 mm 3 mps 594 mmHg 90%
    07:00 +1°C° 0.2 mm 3 mps 594 mmHg 89%
    08:00 +1°C° 0.2 mm 3 mps 594 mmHg 89%
    09:00 +2°C° 0.8 mm 3 mps 594 mmHg 89%
    10:00 +3°C° 0.8 mm 2 mps 595 mmHg 89%
    11:00 +3°C° 0.8 mm 2 mps 595 mmHg 89%
    12:00 +3°C° 0.7 mm 2 mps 594 mmHg 89%
    13:00 +4°C° 0.7 mm 2 mps 594 mmHg 89%
    14:00 +4°C° 0.7 mm 2 mps 594 mmHg 88%
    15:00 +4°C° 0 mm 2 mps 594 mmHg 87%
    16:00 +4°C° 0 mm 2 mps 594 mmHg 86%
    17:00 +4°C° 0 mm 2 mps 594 mmHg 85%
    18:00 +4°C° 0 mm 2 mps 595 mmHg 85%
    19:00 +4°C° 0 mm 2 mps 595 mmHg 85%
    20:00 +4°C° 0 mm 1 mps 595 mmHg 85%
    21:00 +4°C° 0 mm 1 mps 595 mmHg 85%
    22:00 +4°C° 0 mm 1 mps 596 mmHg 85%
    23:00 +4°C° 0 mm 1 mps 596 mmHg 85%

    25 February, Sunday

    Time Temperature Precipitation Wind Pressure Humidity
    00:00 +3°C° 0.3 mm 2 mps 596 mmHg 85%
    01:00 +3°C° 0.3 mm 2 mps 596 mmHg 85%
    02:00 +3°C° 0.3 mm 2 mps 596 mmHg 85%
    03:00 +3°C° 0.5 mm 2 mps 596 mmHg 87%
    04:00 +3°C° 0.5 mm 1 mps 596 mmHg 88%
    05:00 +3°C° 0.5 mm 1 mps 596 mmHg 89%
    06:00 +3°C° 0 mm 1 mps 597 mmHg 88%
    07:00 +3°C° 0 mm 1 mps 597 mmHg 87%
    08:00 +3°C° 0 mm 1 mps 598 mmHg 86%
    09:00 +4°C° 0 mm 1 mps 598 mmHg 85%
    10:00 +5°C° 0 mm 1 mps 598 mmHg 84%
    11:00 +6°C° 0 mm 1 mps 598 mmHg 82%
    12:00 +7°C° 0 mm 1 mps 598 mmHg 81%
    13:00 +7°C° 0 mm 1 mps 598 mmHg 79%
    14:00 +8°C° 0 mm 1 mps 598 mmHg 78%
    15:00 +8°C° 0 mm 1 mps 598 mmHg 76%
    16:00 +8°C° 0 mm 1 mps 598 mmHg 74%
    17:00 +7°C° 0 mm 2 mps 598 mmHg 72%
    18:00 +7°C° 0.2 mm 2 mps 598 mmHg 73%
    19:00 +6°C° 0.2 mm 2 mps 598 mmHg 75%
    20:00 +5°C° 0.2 mm 2 mps 598 mmHg 76%
    21:00 +5°C° 0.3 mm 2 mps 598 mmHg 76%
    22:00 +5°C° 0.3 mm 2 mps 598 mmHg 77%
    23:00 +5°C° 0.3 mm 2 mps 597 mmHg 78%
    Show more